This is the latest recevied weather packets stored in our database for station/object EA3HRE-13. If no packets are shown the sender has not sent any weather packets the latest 10 day(s).
| Time | Temp. | Humidity | Pressure | Rain* | Wind** | Luminosity | Snow |
|---|---|---|---|---|---|---|---|
| 1777998730 | 17.78° C | 100% | 1010.9 hPa | 0 mm | - | - | - |
| 1777998130 | 19.44° C | 100% | 1010.7 hPa | 0 mm | - | - | - |
| 1777997500 | 20.56° C | 100% | 1010.5 hPa | 0 mm | - | - | - |
| 1777996899 | 21.67° C | 100% | 1010.4 hPa | 0 mm | - | - | - |
| 1777996299 | 22.78° C | 100% | 1010.2 hPa | 0 mm | - | - | - |
| 1777995699 | 22.78° C | 100% | 1010.3 hPa | 0 mm | - | - | - |
| 1777995069 | 23.33° C | 100% | 1010.5 hPa | 0 mm | - | - | - |
| 1777994469 | 22.78° C | 100% | 1010.3 hPa | 0 mm | - | - | - |
| 1777993869 | 22.78° C | 100% | 1010.5 hPa | 0 mm | - | - | - |
| 1777993239 | 22.78° C | 100% | 1010.3 hPa | 0 mm | - | - | - |
| 1777992639 | 22.78° C | 100% | 1010.4 hPa | 0 mm | - | - | - |
| 1777992039 | 22.78° C | 100% | 1010.1 hPa | 0 mm | - | - | - |
| 1777991409 | 22.78° C | 100% | 1010.2 hPa | 0 mm | - | - | - |
| 1777990809 | 22.78° C | 100% | 1010 hPa | 0 mm | - | - | - |
| 1777989608 | 21.67° C | 100% | 1010.2 hPa | 0 mm | - | - | - |
| 1777989008 | 22.22° C | 100% | 1010.5 hPa | 0 mm | - | - | - |
| 1777988408 | 23.33° C | 100% | 1010.6 hPa | 0 mm | - | - | - |
| 1777987808 | 22.78° C | 100% | 1010.7 hPa | 0 mm | - | - | - |
| 1777987208 | 23.33° C | 100% | 1010.7 hPa | 0 mm | - | - | - |
| 1777986608 | 23.33° C | 100% | 1010.8 hPa | 0 mm | - | - | - |
| 1777986008 | 22.78° C | 100% | 1010.9 hPa | 0 mm | - | - | - |
| 1777985408 | 22.22° C | 100% | 1011 hPa | 0 mm | - | - | - |
| 1777984778 | 22.22° C | 100% | 1011.1 hPa | 0 mm | - | - | - |
| 1777984178 | 22.22° C | 100% | 1011.1 hPa | 0 mm | - | - | - |
| 1777983547 | 22.22° C | 100% | 1011.3 hPa | 0 mm | - | - | - |
* Rain latest hour (hover to see other rain measurements)
** Current wind speed in m/s (hover to see current wind gust speed)